Location: Berlin
(42.3812°N, 71.6370°W)
Time: 12:44:58
(UTC+00:00)

Cosmos 1943 - Pass Details

Date: 20 February 2026
Orbit: 830 x 850 km, 71.0° (Epoch: 8 March)

Event Time Altitude Azimuth Distance (km) Brightness Sun altitude
Rises 00:58:45 0° 329° (NNW) 3,422 6.9 -29.1°
Reaches altitude 10° 01:01:19 10° 323° (NW) 2,481 6.2 -29.6°
Maximum altitude 01:06:39 42° 254° (WSW) 1,188 4.2 -30.5°
Enters shadow 01:08:38 31° 209° (SSW) 1,438 4.4 -30.9°
